Satellite: ASTRA 1B
Catalog number: 21139
Epoch time:      103013.00000000
Element set:     157 
Inclination:        0.0122 deg
RA of node:       319.8851 deg
Eccentricity:    0.0002995
Arg of perigee:    65.1991 deg
Mean anomaly:     106.1713 deg
Mean motion:    1.00273184 rev/day
Decay rate:    1.3899E-006 rev/day^2
Epoch rev:            3182
Checksum:              237

Satellite: METEOSAT 5 (MO
Catalog number: 21140
Epoch time:      103013.79937034
Element set:     674 
Inclination:        5.5436 deg
RA of node:        70.1592 deg
Eccentricity:    0.0006787
Arg of perigee:   127.4334 deg
Mean anomaly:     266.1645 deg
Mean motion:    1.00269198 rev/day
Decay rate:    3.3000E-007 rev/day^2
Epoch rev:            4569
Checksum:              294

Satellite: NOAA 12
Catalog number: 21263
Epoch time:      103014.93942081
Element set:     931 
Inclination:       98.6220 deg
RA of node:         5.1610 deg
Eccentricity:    0.0013343
Arg of perigee:   119.7581 deg
Mean anomaly:     240.4928 deg
Mean motion:   14.25054451 rev/day
Decay rate:    4.0700E-006 rev/day^2
Epoch rev:           60628
Checksum:              267

Satellite: OSCAR 22 (UoSA
Catalog number: 21575
Epoch time:      103014.53601208
Element set:     700 
Inclination:       98.1369 deg
RA of node:         8.4334 deg
Eccentricity:    0.0006424
Arg of perigee:   237.6732 deg
Mean anomaly:     122.3839 deg
Mean motion:   14.39126369 rev/day
Decay rate:    3.7100E-006 rev/day^2
Epoch rev:           60324
Checksum:              393

Satellite: METEOR 3-5
Catalog number: 21655
Epoch time:      103013.96761870
Element set:     492 
Inclination:       82.5554 deg
RA of node:        64.0209 deg
Eccentricity:    0.0012582
Arg of perigee:   290.6823 deg
Mean anomaly:      69.2950 deg
Mean motion:   13.16977723 rev/day
Decay rate:    5.1000E-007 rev/day^2
Epoch rev:           54879
Checksum:              323

Satellite: UARS
Catalog number: 21701
Epoch time:      103015.43832824
Element set:     800 
Inclination:       56.9785 deg
RA of node:       170.1857 deg
Eccentricity:    0.0006051
Arg of perigee:   113.7024 deg
Mean anomaly:     246.4647 deg
Mean motion:   15.02780334 rev/day
Decay rate:    1.3550E-005 rev/day^2
Epoch rev:           62058
Checksum:              383

Satellite: EUTELSAT 2-F3
Catalog number: 21803
Epoch time:      103011.83353589
Element set:     507 
Inclination:        2.5029 deg
RA of node:        89.5025 deg
Eccentricity:    0.0002836
Arg of perigee:   216.3742 deg
Mean anomaly:     126.5174 deg
Mean motion:    1.00274794 rev/day
Decay rate:    1.4299E-006 rev/day^2
Epoch rev:            3661
Checksum:              289

Satellite: INMARSAT 2-F3
Catalog number: 21814
Epoch time:      103015.48862693
Element set:     600 
Inclination:        1.6772 deg
RA of node:        56.8728 deg
Eccentricity:    0.0002397
Arg of perigee:   249.8128 deg
Mean anomaly:     201.6829 deg
Mean motion:    1.00273440 rev/day
Decay rate:    1.2900E-006 rev/day^2
Epoch rev:            4055
Checksum:              287

Satellite: INMARSAT 2-F4
Catalog number: 21940
Epoch time:      103010.69024135
Element set:     562 
Inclination:        2.3746 deg
RA of node:        19.0466 deg
Eccentricity:    0.0001728
Arg of perigee:   243.7312 deg
Mean anomaly:     204.5234 deg
Mean motion:    1.00267051 rev/day
Decay rate:   -3.4100E-006 rev/day^2
Epoch rev:            3929
Checksum:              247

Satellite: EUTELSAT 2-F4
Catalog number: 22028
Epoch time:      103015.12989006
Element set:     316 
Inclination:        1.6341 deg
RA of node:        93.0648 deg
Eccentricity:    0.0005751
Arg of perigee:   206.0361 deg
Mean anomaly:     209.5041 deg
Mean motion:    1.00272404 rev/day
Decay rate:   -8.1000E-007 rev/day^2
Epoch rev:            3143
Checksum:              234

Satellite: OSCAR 23 (KITS
Catalog number: 22077
Epoch time:      103014.89396745
Element set:     147 
Inclination:       66.0845 deg
RA of node:       198.3435 deg
Eccentricity:    0.0014880
Arg of perigee:   281.8333 deg
Mean anomaly:      78.1017 deg
Mean motion:   12.86407652 rev/day
Decay rate:   -3.7000E-007 rev/day^2
Epoch rev:           48984
Checksum:              330

Satellite: ASTRA 1C
Catalog number: 22653
Epoch time:      103013.00000000
Element set:     783 
Inclination:        0.0122 deg
RA of node:       319.8851 deg
Eccentricity:    0.0002995
Arg of perigee:    65.1991 deg
Mean anomaly:     106.1253 deg
Mean motion:    1.00273184 rev/day
Decay rate:    1.3899E-006 rev/day^2
Epoch rev:            3052
Checksum:              239

Satellite: METEOR 2-21
Catalog number: 22782
Epoch time:      103015.03822793
Element set:     492 
Inclination:       82.5479 deg
RA of node:       242.2832 deg
Eccentricity:    0.0023737
Arg of perigee:    83.6853 deg
Mean anomaly:     276.6999 deg
Mean motion:   13.83528979 rev/day
Decay rate:    9.7999E-007 rev/day^2
Epoch rev:           47331
Checksum:              377

Satellite: KITSAT B
Catalog number: 22825
Epoch time:      103014.88141416
Element set:     462 
Inclination:       98.2784 deg
RA of node:        46.3422 deg
Eccentricity:    0.0008880
Arg of perigee:     8.4623 deg
Mean anomaly:     351.6709 deg
Mean motion:   14.28929172 rev/day
Decay rate:    1.7099E-006 rev/day^2
Epoch rev:           48492
Checksum:              438

Satellite: POSAT 1
Catalog number: 22826
Epoch time:      103013.58686115
Element set:     304 
Inclination:       98.2787 deg
RA of node:        46.2111 deg
Eccentricity:    0.0009600
Arg of perigee:    10.0996 deg
Mean anomaly:     350.0378 deg
Mean motion:   14.29150099 rev/day
Decay rate:    1.6400E-006 rev/day^2
Epoch rev:           48478
Checksum:              295

Satellite: ITAMSAT
Catalog number: 22828
Epoch time:      103014.55573138
Element set:     401 
Inclination:       98.2748 deg
RA of node:        47.3952 deg
Eccentricity:    0.0010306
Arg of perigee:   347.1318 deg
Mean anomaly:      12.9614 deg
Mean motion:   14.29494895 rev/day
Decay rate:    1.5599E-006 rev/day^2
Epoch rev:           45312
Checksum:              313

Satellite: EYESAT A
Catalog number: 22829
Epoch time:      103014.64119328
Element set:     425 
Inclination:       98.2771 deg
RA of node:        48.0637 deg
Eccentricity:    0.0010000
Arg of perigee:   347.5695 deg
Mean anomaly:      12.5239 deg
Mean motion:   14.29748317 rev/day
Decay rate:    2.7799E-006 rev/day^2
Epoch rev:           48506
Checksum:              317

Satellite: METEOSAT 6
Catalog number: 22912
Epoch time:      103012.98045140
Element set:     633 
Inclination:        2.5904 deg
RA of node:        82.5495 deg
Eccentricity:    0.0000874
Arg of perigee:   193.5120 deg
Mean anomaly:     198.2091 deg
Mean motion:    1.00270958 rev/day
Decay rate:    7.7999E-007 rev/day^2
Epoch rev:            3193
Checksum:              301

Satellite: GOES 8
Catalog number: 23051
Epoch time:      103015.31069065
Element set:     560 
Inclination:        0.2169 deg
RA of node:       106.2505 deg
Eccentricity:    0.0002321
Arg of perigee:   195.7323 deg
Mean anomaly:     208.7561 deg
Mean motion:    1.00259250 rev/day
Decay rate:   -2.2799E-006 rev/day^2
Epoch rev:            3946
Checksum:              264

Satellite: ASTRA 1D
Catalog number: 23331
Epoch time:      103015.11583913
Element set:     802 
Inclination:        0.0498 deg
RA of node:       213.9539 deg
Eccentricity:    0.0001204
Arg of perigee:   121.1357 deg
Mean anomaly:     204.8994 deg
Mean motion:    1.00270844 rev/day
Decay rate:    1.5800E-006 rev/day^2
Epoch rev:            3052
Checksum:              244

Satellite: RADIO ROSTO
Catalog number: 23439
Epoch time:      103013.76483765
Element set:     675 
Inclination:       64.8162 deg
RA of node:        99.3797 deg
Eccentricity:    0.0147734
Arg of perigee:   122.1648 deg
Mean anomaly:      28.6100 deg
Mean motion:   11.27548366 rev/day
Decay rate:    9.0000E-008 rev/day^2
Epoch rev:           33155
Checksum:              314

Satellite: NOAA 14
Catalog number: 23455
Epoch time:      103014.92575201
Element set:     486 
Inclination:       99.1878 deg
RA of node:        32.5814 deg
Eccentricity:    0.0008944
Arg of perigee:   330.6505 deg
Mean anomaly:      29.4163 deg
Mean motion:   14.13282884 rev/day
Decay rate:    1.6400E-006 rev/day^2
Epoch rev:           41458
Checksum:              413

Satellite: HIMAWARI 5 (GM
Catalog number: 23522
Epoch time:      103014.72419793
Element set:     53 
Inclination:        1.6707 deg
RA of node:        83.0576 deg
Eccentricity:    0.0000817
Arg of perigee:    98.6443 deg
Mean anomaly:     332.9986 deg
Mean motion:    1.00269725 rev/day
Decay rate:   -2.6200E-006 rev/day^2
Epoch rev:            2854
Checksum:              301

Satellite: HOT BIRD 1
Catalog number: 23537
Epoch time:      103013.80550721
Element set:     533 
Inclination:        0.0070 deg
RA of node:       236.2796 deg
Eccentricity:    0.0008090
Arg of perigee:    86.9786 deg
Mean anomaly:      92.5958 deg
Mean motion:    1.00275871 rev/day
Decay rate:    1.0700E-006 rev/day^2
Epoch rev:            2861
Checksum:              279

Satellite: GOES 9
Catalog number: 23581
Epoch time:      103015.45348737
Element set:     473 
Inclination:        0.3637 deg
RA of node:       278.0489 deg
Eccentricity:    0.0007648
Arg of perigee:   224.5799 deg
Mean anomaly:       6.0094 deg
Mean motion:    1.00034563 rev/day
Decay rate:    1.0300E-006 rev/day^2
Epoch rev:            2802
Checksum:              391

